Location: Home
(42.5358°N, 72.7383°W)
Time: 05:59:49
(UTC-05:00)

A-11 Canister half - Pass Details

Date: 08 December 2021
Orbit: 1524 x 1684 km, 47.3° (Epoch: 17 January)

Event Time Altitude Azimuth Distance (km) Brightness Sun altitude
Exits shadow 04:53:27 36° 296° (WNW) 2,424 9.5 -24.0°
Maximum altitude 04:58:24 83° 21° (NNE) 1,662 9.1 -23.1°
Drops below altitude 10° 05:08:15 10° 110° (ESE) 3,826 12.2 -21.3°
Sets 05:11:19 0° 111° (ESE) 4,788 13.1 -20.8°
